Weather History for KTWF - October, 2013

Change the Weather History Date:

Thursday, October 31, 2013

  Actual Average Record
Temperature  
Mean Temperature 46 °F -  
Max Temperature 56 °F 57 °F 78 °F (2012)
Min Temperature 36 °F 33 °F 5 °F (2002)
Degree Days  
Heating Degree Days 19 20  
Month to date heating degree days 504 457  
Since 1 July heating degree days 611 619  
Cooling Degree Days 0 0  
Month to date cooling degree days 0 2  
Year to date cooling degree days 1138 680  
Moisture  
Dew Point 32 °F    
Average Humidity 55    
Maximum Humidity 71    
Minimum Humidity 38    
Precipitation  
Precipitation T in 0.03 in 0.14 in (1997)
Month to date precipitation 0.12 0.80  
Year to date precipitation 4.23 8.25  
Sea Level Pressure  
Sea Level Pressure 30.10 in    
Wind  
Wind Speed 15 mph (SW)    
Max Wind Speed 28 mph    
Max Gust Speed 36 mph    
Visibility 10 miles    
Events Rain    
T = Trace of Precipitation, MM = Missing Value Source: NWS Daily Summary

Daily Weather History Graph

Daily Weather History Graph

Search for Another Location

Airport or City:

Trip Planner

Search our weather history database for the weather conditions in past years. The results will help you decide how hot, cold, wet, or windy it might be!

Date:

Astronomy

Oct. 31, 2013 Rise Set
Actual Time 8:10 AM MDT 6:31 PM MDT
Civil Twilight 7:41 AM MDT 7:01 PM MDT
Nautical Twilight 7:08 AM MDT 7:34 PM MDT
Astronomical Twilight 6:35 AM MDT 8:06 PM MDT
Moon 5:00 AM MDT (10/31) 4:55 PM MDT (10/31)
Length of Visible Light 11h 19m
Length of Day
10h 21m
Waning Crescent, 9% of the Moon is Illuminated
Oct 31
Waning Crescent
Nov 3
New
Nov 9
First Quarter
Nov 17
Full
Nov 25
Last Quarter

Hourly Weather History & Observations

Time (MDT) Temp. Windchill Dew Point Humidity Pressure Visibility Wind Dir Wind Speed Gust Speed Precip Events Conditions
12:53 AM 43.0 °F 35.4 °F 30.0 °F 60% 30.05 in 10.0 mi SW 16.1 mph - N/A   Overcast
1:53 AM 43.0 °F 35.1 °F 28.9 °F 58% 30.05 in 10.0 mi SW 17.3 mph - N/A   Scattered Clouds
2:53 AM 43.0 °F 36.4 °F 28.9 °F 58% 30.06 in 10.0 mi SSW 12.7 mph 21.9 mph N/A   Overcast
3:53 AM 43.0 °F 36.0 °F 28.9 °F 58% 30.07 in 10.0 mi SW 13.8 mph 20.7 mph N/A   Overcast
4:53 AM 42.1 °F 34.5 °F 27.0 °F 55% 30.08 in 10.0 mi SSW 15.0 mph - N/A   Clear
5:53 AM 37.9 °F 30.5 °F 27.0 °F 65% 30.10 in 10.0 mi SSW 11.5 mph - N/A   Clear
6:53 AM 39.0 °F 31.4 °F 26.1 °F 60% 30.11 in 10.0 mi SSW 12.7 mph - N/A   Clear
7:53 AM 37.0 °F 28.9 °F 26.1 °F 65% 30.13 in 10.0 mi SSW 12.7 mph - N/A   Clear
8:53 AM 37.9 °F 30.5 °F 26.1 °F 62% 30.16 in 10.0 mi SSW 11.5 mph - N/A   Clear
9:53 AM 45.0 °F 37.9 °F 27.0 °F 49% 30.15 in 10.0 mi SW 16.1 mph - N/A   Clear
10:53 AM 51.1 °F - 27.0 °F 39% 30.13 in 10.0 mi WSW 18.4 mph 24.2 mph N/A   Mostly Cloudy
11:53 AM 54.0 °F - 28.0 °F 37% 30.12 in 10.0 mi WSW 18.4 mph 25.3 mph N/A   Scattered Clouds
12:53 PM 53.1 °F - 28.9 °F 40% 30.11 in 10.0 mi West 19.6 mph 27.6 mph N/A   Overcast
1:53 PM 50.0 °F - 36.0 °F 59% 30.10 in 10.0 mi West 11.5 mph - 0.00 in Rain Light Rain
2:53 PM 53.1 °F - 34.0 °F 48% 30.07 in 10.0 mi West 19.6 mph 29.9 mph 0.00 in   Overcast
3:53 PM 55.0 °F - 35.1 °F 47% 30.06 in 10.0 mi WSW 25.3 mph 35.7 mph N/A   Mostly Cloudy
4:53 PM 55.9 °F - 36.0 °F 47% 30.05 in 10.0 mi WSW 23.0 mph 28.8 mph N/A   Scattered Clouds
5:53 PM 54.0 °F - 36.0 °F 51% 30.07 in 10.0 mi West 18.4 mph 26.5 mph N/A   Mostly Cloudy
6:53 PM 50.0 °F - 36.0 °F 59% 30.09 in 10.0 mi West 8.1 mph - N/A   Overcast
7:53 PM 50.0 °F - 36.0 °F 59% 30.09 in 10.0 mi WSW 11.5 mph - N/A   Overcast
8:53 PM 51.1 °F - 37.0 °F 59% 30.10 in 10.0 mi WSW 12.7 mph - N/A   Overcast
9:53 PM 48.9 °F - 37.9 °F 66% 30.12 in 10.0 mi West 10.4 mph - N/A   Overcast
10:53 PM 46.9 °F - 37.9 °F 71% 30.13 in 10.0 mi WSW 11.5 mph - N/A   Mostly Cloudy
11:53 PM 45.0 °F 39.7 °F 36.0 °F 71% 30.12 in 10.0 mi SW 10.4 mph - N/A   Clear